Year,Month,Day,Hour,Minute,Value (Times are PST for temperature in C)
2007,01,30,00,00,2.20
2007,01,30,00,01,2.20
2007,01,30,00,02,2.20
2007,01,30,00,03,2.20
2007,01,30,00,04,2.20
2007,01,30,00,05,2.20
2007,01,30,00,06,2.20
2007,01,30,00,07,2.20
2007,01,30,00,08,2.20
2007,01,30,00,09,2.20
2007,01,30,00,10,2.20
2007,01,30,00,11,2.20
2007,01,30,00,12,2.30
2007,01,30,00,13,2.30
2007,01,30,00,14,2.40
2007,01,30,00,15,2.50
2007,01,30,00,16,2.50
2007,01,30,00,17,2.50
2007,01,30,00,18,2.60
2007,01,30,00,19,2.60
2007,01,30,00,20,2.60
2007,01,30,00,21,2.70
2007,01,30,00,22,2.70
2007,01,30,00,23,2.70
2007,01,30,00,24,2.70
2007,01,30,00,25,2.80
2007,01,30,00,26,2.80
2007,01,30,00,27,2.90
2007,01,30,00,28,2.90
2007,01,30,00,29,2.90
2007,01,30,00,30,2.90
2007,01,30,00,31,2.90
2007,01,30,00,32,2.90
2007,01,30,00,33,2.90
2007,01,30,00,34,2.90
2007,01,30,00,35,2.90
2007,01,30,00,36,2.90
2007,01,30,00,37,2.90
2007,01,30,00,38,2.90
2007,01,30,00,39,2.90
2007,01,30,00,40,2.90
2007,01,30,00,41,2.90
2007,01,30,00,42,2.90
2007,01,30,00,43,2.90
2007,01,30,00,44,2.80
2007,01,30,00,45,2.80
2007,01,30,00,46,2.80
2007,01,30,00,47,2.80
2007,01,30,00,48,2.70
2007,01,30,00,49,2.70
2007,01,30,00,50,2.70
2007,01,30,00,51,2.70
2007,01,30,00,52,2.70
2007,01,30,00,53,2.70
2007,01,30,00,54,2.70
2007,01,30,00,55,2.70
2007,01,30,00,56,2.70
2007,01,30,00,57,2.70
2007,01,30,00,58,2.70
2007,01,30,00,59,2.70
2007,01,30,01,00,2.70
2007,01,30,01,01,2.70
2007,01,30,01,02,2.70
2007,01,30,01,03,2.80
2007,01,30,01,04,2.80
2007,01,30,01,05,2.90
2007,01,30,01,06,2.90
2007,01,30,01,07,2.90
2007,01,30,01,08,2.90
2007,01,30,01,09,2.80
2007,01,30,01,10,2.80
2007,01,30,01,11,2.80
2007,01,30,01,12,2.80
2007,01,30,01,13,2.80
2007,01,30,01,14,2.90
2007,01,30,01,15,2.90
2007,01,30,01,16,3.00
2007,01,30,01,17,3.10
2007,01,30,01,18,3.20
2007,01,30,01,19,3.20
2007,01,30,01,20,3.30
2007,01,30,01,21,3.30
2007,01,30,01,22,3.30
2007,01,30,01,23,3.30
2007,01,30,01,24,3.30
2007,01,30,01,25,3.30
2007,01,30,01,26,3.30
2007,01,30,01,27,3.30
2007,01,30,01,28,3.30
2007,01,30,01,29,3.30
2007,01,30,01,30,3.30
2007,01,30,01,31,3.30
2007,01,30,01,32,3.30
2007,01,30,01,33,3.20
2007,01,30,01,34,3.20
2007,01,30,01,35,3.20
2007,01,30,01,36,3.20
2007,01,30,01,37,3.20
2007,01,30,01,38,3.20
2007,01,30,01,39,3.20
2007,01,30,01,40,3.20
2007,01,30,01,41,3.20
2007,01,30,01,42,3.20
2007,01,30,01,43,3.20
2007,01,30,01,44,3.10
2007,01,30,01,45,3.10
2007,01,30,01,46,3.10
2007,01,30,01,47,3.00
2007,01,30,01,48,2.90
2007,01,30,01,49,2.90
2007,01,30,01,50,2.90
2007,01,30,01,51,2.90
2007,01,30,01,52,2.90
2007,01,30,01,53,2.90
2007,01,30,01,54,2.90
2007,01,30,01,55,2.80
2007,01,30,01,56,2.80
2007,01,30,01,57,2.80
2007,01,30,01,58,2.80
2007,01,30,01,59,2.80
2007,01,30,02,00,2.70
2007,01,30,02,01,2.70
2007,01,30,02,02,2.70
2007,01,30,02,03,2.70
2007,01,30,02,04,2.70
2007,01,30,02,05,2.70
2007,01,30,02,06,2.70
2007,01,30,02,07,2.70
2007,01,30,02,08,2.60
2007,01,30,02,09,2.60
2007,01,30,02,10,2.60
2007,01,30,02,11,2.60
2007,01,30,02,12,2.60
2007,01,30,02,13,2.60
2007,01,30,02,14,2.60
2007,01,30,02,15,2.60
2007,01,30,02,16,2.70
2007,01,30,02,17,2.70
2007,01,30,02,18,2.70
2007,01,30,02,19,2.70
2007,01,30,02,20,2.70
2007,01,30,02,21,2.70
2007,01,30,02,22,2.70
2007,01,30,02,23,2.70
2007,01,30,02,24,2.70
2007,01,30,02,25,2.70
2007,01,30,02,26,2.70
2007,01,30,02,27,2.70
2007,01,30,02,28,2.70
2007,01,30,02,29,2.70
2007,01,30,02,30,2.70
2007,01,30,02,31,2.60
2007,01,30,02,32,2.60
2007,01,30,02,33,2.50
2007,01,30,02,34,2.50
2007,01,30,02,35,2.40
2007,01,30,02,36,2.30
2007,01,30,02,37,2.30
2007,01,30,02,38,2.20
2007,01,30,02,39,2.20
2007,01,30,02,40,2.20
2007,01,30,02,41,2.20
2007,01,30,02,42,2.10
2007,01,30,02,43,2.10
2007,01,30,02,44,2.00
2007,01,30,02,45,2.00
2007,01,30,02,46,2.00
2007,01,30,02,47,2.00
2007,01,30,02,48,1.90
2007,01,30,02,49,1.90
2007,01,30,02,50,1.90
2007,01,30,02,51,1.90
2007,01,30,02,52,1.90
2007,01,30,02,53,1.90
2007,01,30,02,54,1.90
2007,01,30,02,55,2.00
2007,01,30,02,56,2.00
2007,01,30,02,57,2.00
2007,01,30,02,58,1.90
2007,01,30,02,59,1.90
2007,01,30,03,00,1.80
2007,01,30,03,01,1.80
2007,01,30,03,02,1.80
2007,01,30,03,03,1.80
2007,01,30,03,04,1.70
2007,01,30,03,05,1.70
2007,01,30,03,06,1.70
2007,01,30,03,07,1.60
2007,01,30,03,08,1.60
2007,01,30,03,09,1.60
2007,01,30,03,10,1.50
2007,01,30,03,11,1.50
2007,01,30,03,12,1.60
2007,01,30,03,13,1.60
2007,01,30,03,14,1.60
2007,01,30,03,15,1.60
2007,01,30,03,16,1.60
2007,01,30,03,17,1.60
2007,01,30,03,18,1.60
2007,01,30,03,19,1.60
2007,01,30,03,20,1.60
2007,01,30,03,21,1.60
2007,01,30,03,22,1.60
2007,01,30,03,23,1.60
2007,01,30,03,24,1.60
2007,01,30,03,25,1.60
2007,01,30,03,26,1.60
2007,01,30,03,27,1.60
2007,01,30,03,28,1.60
2007,01,30,03,29,1.50
2007,01,30,03,30,1.50
2007,01,30,03,31,1.50
2007,01,30,03,32,1.50
2007,01,30,03,33,1.50
2007,01,30,03,34,1.50
2007,01,30,03,35,1.50
2007,01,30,03,36,1.40
2007,01,30,03,37,1.40
2007,01,30,03,38,1.40
2007,01,30,03,39,1.30
2007,01,30,03,40,1.30
2007,01,30,03,41,1.30
2007,01,30,03,42,1.30
2007,01,30,03,43,1.30
2007,01,30,03,44,1.30
2007,01,30,03,45,1.30
2007,01,30,03,46,1.20
2007,01,30,03,47,1.20
2007,01,30,03,48,1.10
2007,01,30,03,49,1.10
2007,01,30,03,50,1.10
2007,01,30,03,51,1.00
2007,01,30,03,52,1.00
2007,01,30,03,53,1.00
2007,01,30,03,54,1.00
2007,01,30,03,55,0.90
2007,01,30,03,56,0.90
2007,01,30,03,57,0.90
2007,01,30,03,58,0.80
2007,01,30,03,59,0.80
2007,01,30,04,00,0.80
2007,01,30,04,01,0.80
2007,01,30,04,02,0.80
2007,01,30,04,03,0.80
2007,01,30,04,04,0.80
2007,01,30,04,05,0.70
2007,01,30,04,06,0.70
2007,01,30,04,07,0.70
2007,01,30,04,08,0.60
2007,01,30,04,09,0.60
2007,01,30,04,10,0.60
2007,01,30,04,11,0.50
2007,01,30,04,12,0.50
2007,01,30,04,13,0.50
2007,01,30,04,14,0.40
2007,01,30,04,15,0.40
2007,01,30,04,16,0.40
2007,01,30,04,17,0.40
2007,01,30,04,18,0.40
2007,01,30,04,19,0.40
2007,01,30,04,20,0.40
2007,01,30,04,21,0.40
2007,01,30,04,22,0.40
2007,01,30,04,23,0.40
2007,01,30,04,24,0.30
2007,01,30,04,25,0.30
2007,01,30,04,26,0.30
2007,01,30,04,27,0.30
2007,01,30,04,28,0.30
2007,01,30,04,29,0.30
2007,01,30,04,30,0.30
2007,01,30,04,31,0.30
2007,01,30,04,32,0.30
2007,01,30,04,33,0.30
2007,01,30,04,34,0.30
2007,01,30,04,35,0.30
2007,01,30,04,36,0.30
2007,01,30,04,37,0.30
2007,01,30,04,38,0.30
2007,01,30,04,39,0.30
2007,01,30,04,40,0.30
2007,01,30,04,41,0.30
2007,01,30,04,42,0.30
2007,01,30,04,43,0.30
2007,01,30,04,44,0.40
2007,01,30,04,45,0.40
2007,01,30,04,46,0.40
2007,01,30,04,47,0.40
2007,01,30,04,48,0.40
2007,01,30,04,49,0.40
2007,01,30,04,50,0.40
2007,01,30,04,51,0.40
2007,01,30,04,52,0.50
2007,01,30,04,53,0.50
2007,01,30,04,54,0.50
2007,01,30,04,55,0.50
2007,01,30,04,56,0.50
2007,01,30,04,57,0.50
2007,01,30,04,58,0.50
2007,01,30,04,59,0.50
2007,01,30,05,00,0.50
2007,01,30,05,01,0.50
2007,01,30,05,02,0.50
2007,01,30,05,03,0.60
2007,01,30,05,04,0.60
2007,01,30,05,05,0.60
2007,01,30,05,06,0.60
2007,01,30,05,07,0.60
2007,01,30,05,08,0.60
2007,01,30,05,09,0.60
2007,01,30,05,10,0.60
2007,01,30,05,11,0.50
2007,01,30,05,12,0.50
2007,01,30,05,13,0.50
2007,01,30,05,14,0.50
2007,01,30,05,15,0.50
2007,01,30,05,16,0.50
2007,01,30,05,17,0.50
2007,01,30,05,18,0.50
2007,01,30,05,19,0.50
2007,01,30,05,20,0.50
2007,01,30,05,21,0.50
2007,01,30,05,22,0.50
2007,01,30,05,23,0.50
2007,01,30,05,24,0.50
2007,01,30,05,25,0.50
2007,01,30,05,26,0.60
2007,01,30,05,27,0.60
2007,01,30,05,28,0.60
2007,01,30,05,29,0.60
2007,01,30,05,30,0.60
2007,01,30,05,31,0.70
2007,01,30,05,32,0.70
2007,01,30,05,33,0.70
2007,01,30,05,34,0.70
2007,01,30,05,35,0.70
2007,01,30,05,36,0.70
2007,01,30,05,37,0.70
2007,01,30,05,38,0.70
2007,01,30,05,39,0.70
2007,01,30,05,40,0.70
2007,01,30,05,41,0.70
2007,01,30,05,42,0.70
2007,01,30,05,43,0.70
2007,01,30,05,44,0.70
2007,01,30,05,45,0.70
2007,01,30,05,46,0.70
2007,01,30,05,47,0.70
2007,01,30,05,48,0.70
2007,01,30,05,49,0.70
2007,01,30,05,50,0.70
2007,01,30,05,51,0.70
2007,01,30,05,52,0.70
2007,01,30,05,53,0.70
2007,01,30,05,54,0.70
2007,01,30,05,55,0.70
2007,01,30,05,56,0.70
2007,01,30,05,57,0.70
2007,01,30,05,58,0.60
2007,01,30,05,59,0.60
2007,01,30,06,00,0.60
2007,01,30,06,01,0.60
2007,01,30,06,02,0.70
2007,01,30,06,03,0.70
2007,01,30,06,04,0.70
2007,01,30,06,05,0.70
2007,01,30,06,06,0.70
2007,01,30,06,07,0.70
2007,01,30,06,08,0.80
2007,01,30,06,09,0.80
2007,01,30,06,10,0.80
2007,01,30,06,11,0.80
2007,01,30,06,12,0.80
2007,01,30,06,13,0.80
2007,01,30,06,14,0.90
2007,01,30,06,15,0.90
2007,01,30,06,16,1.00
2007,01,30,06,17,1.00
2007,01,30,06,18,1.00
2007,01,30,06,19,1.10
2007,01,30,06,20,1.20
2007,01,30,06,21,1.20
2007,01,30,06,22,1.20
2007,01,30,06,23,1.20
2007,01,30,06,24,1.30
2007,01,30,06,25,1.30
2007,01,30,06,26,1.30
2007,01,30,06,27,1.30
2007,01,30,06,28,1.40
2007,01,30,06,29,1.40
2007,01,30,06,30,1.40
2007,01,30,06,31,1.40
2007,01,30,06,32,1.40
2007,01,30,06,33,1.40
2007,01,30,06,34,1.40
2007,01,30,06,35,1.40
2007,01,30,06,36,1.40
2007,01,30,06,37,1.40
2007,01,30,06,38,1.30
2007,01,30,06,39,1.30
2007,01,30,06,40,1.30
2007,01,30,06,41,1.30
2007,01,30,06,42,1.30
2007,01,30,06,43,1.20
2007,01,30,06,44,1.20
2007,01,30,06,45,1.20
2007,01,30,06,46,1.10
2007,01,30,06,47,1.10
2007,01,30,06,48,1.00
2007,01,30,06,49,1.00
2007,01,30,06,50,1.00
2007,01,30,06,51,0.90
2007,01,30,06,52,0.90
2007,01,30,06,53,0.90
2007,01,30,06,54,0.90
2007,01,30,06,55,0.90
2007,01,30,06,56,0.90
2007,01,30,06,57,0.90
2007,01,30,06,58,0.90
2007,01,30,06,59,0.90
2007,01,30,07,00,1.00
2007,01,30,07,01,1.00
2007,01,30,07,02,1.10
2007,01,30,07,03,1.10
2007,01,30,07,04,1.20
2007,01,30,07,05,1.30
2007,01,30,07,06,1.30
2007,01,30,07,07,1.30
2007,01,30,07,08,1.30
2007,01,30,07,09,1.30
2007,01,30,07,10,1.30
2007,01,30,07,11,1.30
2007,01,30,07,12,1.30
2007,01,30,07,13,1.30
2007,01,30,07,14,1.30
2007,01,30,07,15,1.30
2007,01,30,07,16,1.30
2007,01,30,07,17,1.30
2007,01,30,07,18,1.30
2007,01,30,07,19,1.30
2007,01,30,07,20,1.30
2007,01,30,07,21,1.30
2007,01,30,07,22,1.30
2007,01,30,07,23,1.30
2007,01,30,07,24,1.30
2007,01,30,07,25,1.30
2007,01,30,07,26,1.30
2007,01,30,07,27,1.30
2007,01,30,07,28,1.30
2007,01,30,07,29,1.50
2007,01,30,07,30,1.50
2007,01,30,07,31,1.60
2007,01,30,07,32,1.80
2007,01,30,07,33,1.90
2007,01,30,07,34,1.90
2007,01,30,07,35,2.00
2007,01,30,07,36,2.00
2007,01,30,07,37,2.10
2007,01,30,07,38,2.10
2007,01,30,07,39,2.10
2007,01,30,07,40,2.20
2007,01,30,07,41,2.20
2007,01,30,07,42,2.20
2007,01,30,07,43,2.20
2007,01,30,07,44,2.20
2007,01,30,07,45,2.20
2007,01,30,07,46,2.30
2007,01,30,07,47,2.30
2007,01,30,07,48,2.40
2007,01,30,07,49,2.40
2007,01,30,07,50,2.50
2007,01,30,07,51,2.50
2007,01,30,07,52,2.60
2007,01,30,07,53,2.70
2007,01,30,07,54,2.70
2007,01,30,07,55,2.70
2007,01,30,07,56,2.80
2007,01,30,07,57,2.80
2007,01,30,07,58,2.90
2007,01,30,07,59,2.90
2007,01,30,08,00,2.90
2007,01,30,08,01,3.00
2007,01,30,08,02,3.10
2007,01,30,08,03,3.10
2007,01,30,08,04,3.10
2007,01,30,08,05,3.10
2007,01,30,08,06,3.20
2007,01,30,08,07,3.20
2007,01,30,08,08,3.20
2007,01,30,08,09,3.20
2007,01,30,08,10,3.20
2007,01,30,08,11,3.10
2007,01,30,08,12,3.10
2007,01,30,08,13,3.10
2007,01,30,08,14,3.10
2007,01,30,08,15,3.00
2007,01,30,08,16,2.90
2007,01,30,08,17,2.90
2007,01,30,08,18,2.90
2007,01,30,08,19,2.90
2007,01,30,08,20,2.90
2007,01,30,08,21,2.90
2007,01,30,08,22,2.90
2007,01,30,08,23,2.90
2007,01,30,08,24,2.90
2007,01,30,08,25,3.00
2007,01,30,08,26,3.10
2007,01,30,08,27,3.10
2007,01,30,08,28,3.10
2007,01,30,08,29,3.20
2007,01,30,08,30,3.30
2007,01,30,08,31,3.40
2007,01,30,08,32,3.40
2007,01,30,08,33,3.50
2007,01,30,08,34,3.60
2007,01,30,08,35,3.70
2007,01,30,08,36,3.80
2007,01,30,08,37,3.80
2007,01,30,08,38,3.80
2007,01,30,08,39,3.90
2007,01,30,08,40,3.90
2007,01,30,08,41,4.00
2007,01,30,08,42,4.00
2007,01,30,08,43,4.00
2007,01,30,08,44,4.00
2007,01,30,08,45,4.00
2007,01,30,08,46,4.00
2007,01,30,08,47,4.00
2007,01,30,08,48,3.90
2007,01,30,08,49,3.90
2007,01,30,08,50,3.90
2007,01,30,08,51,3.90
2007,01,30,08,52,3.80
2007,01,30,08,53,3.80
2007,01,30,08,54,3.80
2007,01,30,08,55,3.80
2007,01,30,08,56,3.80
2007,01,30,08,57,3.90
2007,01,30,08,58,3.90
2007,01,30,08,59,4.00
2007,01,30,09,00,4.00
2007,01,30,09,01,4.00
2007,01,30,09,02,4.00
2007,01,30,09,03,4.00
2007,01,30,09,04,4.00
2007,01,30,09,05,4.00
2007,01,30,09,06,4.00
2007,01,30,09,07,4.00
2007,01,30,09,08,4.00
2007,01,30,09,09,4.10
2007,01,30,09,10,4.10
2007,01,30,09,11,4.10
2007,01,30,09,12,4.10
2007,01,30,09,13,4.10
2007,01,30,09,14,4.10
2007,01,30,09,15,4.10
2007,01,30,09,16,4.10
2007,01,30,09,17,4.10
2007,01,30,09,18,4.20
2007,01,30,09,19,4.20
2007,01,30,09,20,4.20
2007,01,30,09,21,4.30
2007,01,30,09,22,4.30
2007,01,30,09,23,4.30
2007,01,30,09,24,4.30
2007,01,30,09,25,4.40
2007,01,30,09,26,4.40
2007,01,30,09,27,4.40
2007,01,30,09,28,4.40
2007,01,30,09,29,4.50
2007,01,30,09,30,4.50
2007,01,30,09,31,4.40
2007,01,30,09,32,4.40
2007,01,30,09,33,4.30
2007,01,30,09,34,4.20
2007,01,30,09,35,4.20
2007,01,30,09,36,4.20
2007,01,30,09,37,4.20
2007,01,30,09,38,4.20
2007,01,30,09,39,4.20
2007,01,30,09,40,4.20
2007,01,30,09,41,4.20
2007,01,30,09,42,4.20
2007,01,30,09,43,4.20
2007,01,30,09,44,4.20
2007,01,30,09,45,4.20
2007,01,30,09,46,4.20
2007,01,30,09,47,4.20
2007,01,30,09,48,4.20
2007,01,30,09,49,4.20
2007,01,30,09,50,4.20
2007,01,30,09,51,4.20
2007,01,30,09,52,4.30
2007,01,30,09,53,4.30
2007,01,30,09,54,4.40
2007,01,30,09,55,4.50
2007,01,30,09,56,4.50
2007,01,30,09,57,4.60
2007,01,30,09,58,4.60
2007,01,30,09,59,4.70
2007,01,30,10,00,4.70
2007,01,30,10,01,4.80
2007,01,30,10,02,4.90
2007,01,30,10,03,4.90
2007,01,30,10,04,5.10
2007,01,30,10,05,5.10
2007,01,30,10,06,5.10
2007,01,30,10,07,5.20
2007,01,30,10,08,5.30
2007,01,30,10,09,5.30
2007,01,30,10,10,5.30
2007,01,30,10,11,5.40
2007,01,30,10,12,5.40
2007,01,30,10,13,5.50
2007,01,30,10,14,5.60
2007,01,30,10,15,5.60
2007,01,30,10,16,5.60
2007,01,30,10,17,5.70
2007,01,30,10,18,5.70
2007,01,30,10,19,5.70
2007,01,30,10,20,5.80
2007,01,30,10,21,5.80
2007,01,30,10,22,5.80
2007,01,30,10,23,5.90
2007,01,30,10,24,5.90
2007,01,30,10,25,5.90
2007,01,30,10,26,6.00
2007,01,30,10,27,6.00
2007,01,30,10,28,6.00
2007,01,30,10,29,6.00
2007,01,30,10,30,6.00
2007,01,30,10,31,6.00
2007,01,30,10,32,6.00
2007,01,30,10,33,5.90
2007,01,30,10,34,5.90
2007,01,30,10,35,6.00
2007,01,30,10,36,6.00
2007,01,30,10,37,6.00
2007,01,30,10,38,6.00
2007,01,30,10,39,6.10
2007,01,30,10,40,6.20
2007,01,30,10,41,6.20
2007,01,30,10,42,6.20
2007,01,30,10,43,6.20
2007,01,30,10,44,6.20
2007,01,30,10,45,6.20
2007,01,30,10,46,6.20
2007,01,30,10,47,6.30
2007,01,30,10,48,6.40
2007,01,30,10,49,6.40
2007,01,30,10,50,6.40
2007,01,30,10,51,6.40
2007,01,30,10,52,6.50
2007,01,30,10,53,6.60
2007,01,30,10,54,6.60
2007,01,30,10,55,6.60
2007,01,30,10,56,6.60
2007,01,30,10,57,6.60
2007,01,30,10,58,6.60
2007,01,30,10,59,6.70
2007,01,30,11,00,6.70
2007,01,30,11,01,6.70
2007,01,30,11,02,6.80
2007,01,30,11,03,6.80
2007,01,30,11,04,6.80
2007,01,30,11,05,6.80
2007,01,30,11,06,6.70
2007,01,30,11,07,6.70
2007,01,30,11,08,6.70
2007,01,30,11,09,6.70
2007,01,30,11,10,6.60
2007,01,30,11,11,6.60
2007,01,30,11,12,6.50
2007,01,30,11,13,6.40
2007,01,30,11,14,6.40
2007,01,30,11,15,6.40
2007,01,30,11,16,6.40
2007,01,30,11,17,6.40
2007,01,30,11,18,6.40
2007,01,30,11,19,6.40
2007,01,30,11,20,6.50
2007,01,30,11,21,6.60
2007,01,30,11,22,6.60
2007,01,30,11,23,6.60
2007,01,30,11,24,6.60
2007,01,30,11,25,6.60
2007,01,30,11,26,6.70
2007,01,30,11,27,6.80
2007,01,30,11,28,6.80
2007,01,30,11,29,6.80
2007,01,30,11,30,6.90
2007,01,30,11,31,6.90
2007,01,30,11,32,7.00
2007,01,30,11,33,7.00
2007,01,30,11,34,7.10
2007,01,30,11,35,7.20
2007,01,30,11,36,7.20
2007,01,30,11,37,7.30
2007,01,30,11,38,7.30
2007,01,30,11,39,7.30
2007,01,30,11,40,7.30
2007,01,30,11,41,7.30
2007,01,30,11,42,7.30
2007,01,30,11,43,7.30
2007,01,30,11,44,7.30
2007,01,30,11,45,7.30
2007,01,30,11,46,7.30
2007,01,30,11,47,7.30
2007,01,30,11,48,7.30
2007,01,30,11,49,7.40
2007,01,30,11,50,7.40
2007,01,30,11,51,7.50
2007,01,30,11,52,7.50
2007,01,30,11,53,7.60
2007,01,30,11,54,7.60
2007,01,30,11,55,7.60
2007,01,30,11,56,7.70
2007,01,30,11,57,7.80
2007,01,30,11,58,7.80
2007,01,30,11,59,7.90
2007,01,30,12,00,8.00
2007,01,30,12,01,8.00
2007,01,30,12,02,8.00
2007,01,30,12,03,8.00
2007,01,30,12,04,8.00
2007,01,30,12,05,8.10
2007,01,30,12,06,8.10
2007,01,30,12,07,8.10
2007,01,30,12,08,8.10
2007,01,30,12,09,8.20
2007,01,30,12,10,8.20
2007,01,30,12,11,8.20
2007,01,30,12,12,8.20
2007,01,30,12,13,8.20
2007,01,30,12,14,8.20
2007,01,30,12,15,8.30
2007,01,30,12,16,8.30
2007,01,30,12,17,8.30
2007,01,30,12,18,8.30
2007,01,30,12,19,8.20
2007,01,30,12,20,8.20
2007,01,30,12,21,8.20
2007,01,30,12,22,8.20
2007,01,30,12,23,8.20
2007,01,30,12,24,8.20
2007,01,30,12,25,8.20
2007,01,30,12,26,8.20
2007,01,30,12,27,8.30
2007,01,30,12,28,8.30
2007,01,30,12,29,8.40
2007,01,30,12,30,8.40
2007,01,30,12,31,8.50
2007,01,30,12,32,8.50
2007,01,30,12,33,8.50
2007,01,30,12,34,8.60
2007,01,30,12,35,8.60
2007,01,30,12,36,8.60
2007,01,30,12,37,8.60
2007,01,30,12,38,8.70
2007,01,30,12,39,8.70
2007,01,30,12,40,8.70
2007,01,30,12,41,8.70
2007,01,30,12,42,8.70
2007,01,30,12,43,8.70
2007,01,30,12,44,8.70
2007,01,30,12,45,8.70
2007,01,30,12,46,8.70
2007,01,30,12,47,8.70
2007,01,30,12,48,8.70
2007,01,30,12,49,8.70
2007,01,30,12,50,8.80
2007,01,30,12,51,8.80
2007,01,30,12,52,8.90
2007,01,30,12,53,8.90
2007,01,30,12,54,9.00
2007,01,30,12,55,9.00
2007,01,30,12,56,8.90
2007,01,30,12,57,9.00
2007,01,30,12,58,9.00
2007,01,30,12,59,9.00
2007,01,30,13,00,9.10
2007,01,30,13,01,9.10
2007,01,30,13,02,9.10
2007,01,30,13,03,9.10
2007,01,30,13,04,9.10
2007,01,30,13,05,9.20
2007,01,30,13,06,9.20
2007,01,30,13,07,9.20
2007,01,30,13,08,9.20
2007,01,30,13,09,9.20
2007,01,30,13,10,9.20
2007,01,30,13,11,9.20
2007,01,30,13,12,9.20
2007,01,30,13,13,9.20
2007,01,30,13,14,9.20
2007,01,30,13,15,9.20
2007,01,30,13,16,9.30
2007,01,30,13,17,9.30
2007,01,30,13,18,9.40
2007,01,30,13,19,9.40
2007,01,30,13,20,9.50
2007,01,30,13,21,9.50
2007,01,30,13,22,9.40
2007,01,30,13,23,9.40
2007,01,30,13,24,9.30
2007,01,30,13,25,9.30
2007,01,30,13,26,9.40
2007,01,30,13,27,9.40
2007,01,30,13,28,9.50
2007,01,30,13,29,9.50
2007,01,30,13,30,9.60
2007,01,30,13,31,9.60
2007,01,30,13,32,9.60
2007,01,30,13,33,9.60
2007,01,30,13,34,9.60
2007,01,30,13,35,9.60
2007,01,30,13,36,9.60
2007,01,30,13,37,9.70
2007,01,30,13,38,9.80
2007,01,30,13,39,9.90
2007,01,30,13,40,9.90
2007,01,30,13,41,9.90
2007,01,30,13,42,10.10
2007,01,30,13,43,10.10
2007,01,30,13,44,10.10
2007,01,30,13,45,10.20
2007,01,30,13,46,10.20
2007,01,30,13,47,10.30
2007,01,30,13,48,10.30
2007,01,30,13,49,10.30
2007,01,30,13,50,10.30
2007,01,30,13,51,10.30
2007,01,30,13,52,10.30
2007,01,30,13,53,10.30
2007,01,30,13,54,10.30
2007,01,30,13,55,10.20
2007,01,30,13,56,10.20
2007,01,30,13,57,10.10
2007,01,30,13,58,10.10
2007,01,30,13,59,10.10
2007,01,30,14,00,10.00
2007,01,30,14,01,9.90
2007,01,30,14,02,9.90
2007,01,30,14,03,9.90
2007,01,30,14,04,9.90
2007,01,30,14,05,9.90
2007,01,30,14,06,10.00
2007,01,30,14,07,10.10
2007,01,30,14,08,10.10
2007,01,30,14,09,10.20
2007,01,30,14,10,10.30
2007,01,30,14,11,10.30
2007,01,30,14,12,10.40
2007,01,30,14,13,10.40
2007,01,30,14,14,10.40
2007,01,30,14,15,10.40
2007,01,30,14,16,10.40
2007,01,30,14,17,10.40
2007,01,30,14,18,10.40
2007,01,30,14,19,10.40
2007,01,30,14,20,10.40
2007,01,30,14,21,10.40
2007,01,30,14,22,10.40
2007,01,30,14,23,10.40
2007,01,30,14,24,10.40
2007,01,30,14,25,10.40
2007,01,30,14,26,10.50
2007,01,30,14,27,10.60
2007,01,30,14,28,10.60
2007,01,30,14,29,10.60
2007,01,30,14,30,10.60
2007,01,30,14,31,10.60
2007,01,30,14,32,10.60
2007,01,30,14,33,10.60
2007,01,30,14,34,10.60
2007,01,30,14,35,10.60
2007,01,30,14,36,10.60
2007,01,30,14,37,10.70
2007,01,30,14,38,10.70
2007,01,30,14,39,10.70
2007,01,30,14,40,10.60
2007,01,30,14,41,10.60
2007,01,30,14,42,10.60
2007,01,30,14,43,10.60
2007,01,30,14,44,10.60
2007,01,30,14,45,10.60
2007,01,30,14,46,10.60
2007,01,30,14,47,10.60
2007,01,30,14,48,10.60
2007,01,30,14,49,10.50
2007,01,30,14,50,10.40
2007,01,30,14,51,10.40
2007,01,30,14,52,10.50
2007,01,30,14,53,10.60
2007,01,30,14,54,10.60
2007,01,30,14,55,10.60
2007,01,30,14,56,10.60
2007,01,30,14,57,10.60
2007,01,30,14,58,10.60
2007,01,30,14,59,10.60
2007,01,30,15,00,10.60
2007,01,30,15,01,10.60
2007,01,30,15,02,10.60
2007,01,30,15,03,10.70
2007,01,30,15,04,10.70
2007,01,30,15,05,10.70
2007,01,30,15,06,10.70
2007,01,30,15,07,10.70
2007,01,30,15,08,10.80
2007,01,30,15,09,10.70
2007,01,30,15,10,10.70
2007,01,30,15,11,10.60
2007,01,30,15,12,10.50
2007,01,30,15,13,10.40
2007,01,30,15,14,10.40
2007,01,30,15,15,10.40
2007,01,30,15,16,10.40
2007,01,30,15,17,10.30
2007,01,30,15,18,10.30
2007,01,30,15,19,10.30
2007,01,30,15,20,10.20
2007,01,30,15,21,10.10
2007,01,30,15,22,10.10
2007,01,30,15,23,10.10
2007,01,30,15,24,10.10
2007,01,30,15,25,10.10
2007,01,30,15,26,10.10
2007,01,30,15,27,10.10
2007,01,30,15,28,10.10
2007,01,30,15,29,10.10
2007,01,30,15,30,10.00
2007,01,30,15,31,9.90
2007,01,30,15,32,9.90
2007,01,30,15,33,9.90
2007,01,30,15,34,9.90
2007,01,30,15,35,9.80
2007,01,30,15,36,9.80
2007,01,30,15,37,9.70
2007,01,30,15,38,9.70
2007,01,30,15,39,9.70
2007,01,30,15,40,9.70
2007,01,30,15,41,9.70
2007,01,30,15,42,9.70
2007,01,30,15,43,9.70
2007,01,30,15,44,9.70
2007,01,30,15,45,9.60
2007,01,30,15,46,9.50
2007,01,30,15,47,9.50
2007,01,30,15,48,9.40
2007,01,30,15,49,9.40
2007,01,30,15,50,9.30
2007,01,30,15,51,9.30
2007,01,30,15,52,9.30
2007,01,30,15,53,9.30
2007,01,30,15,54,9.30
2007,01,30,15,55,9.30
2007,01,30,15,56,9.30
2007,01,30,15,57,9.30
2007,01,30,15,58,9.30
2007,01,30,15,59,9.30
2007,01,30,16,00,9.30
2007,01,30,16,01,9.20
2007,01,30,16,02,9.10
2007,01,30,16,03,9.00
2007,01,30,16,04,9.00
2007,01,30,16,05,8.90
2007,01,30,16,06,8.80
2007,01,30,16,07,8.70
2007,01,30,16,08,8.70
2007,01,30,16,09,8.60
2007,01,30,16,10,8.50
2007,01,30,16,11,8.40
2007,01,30,16,12,8.40
2007,01,30,16,13,8.30
2007,01,30,16,14,8.20
2007,01,30,16,15,8.20
2007,01,30,16,16,8.20
2007,01,30,16,17,8.20
2007,01,30,16,18,8.20
2007,01,30,16,19,8.20
2007,01,30,16,20,8.10
2007,01,30,16,21,8.10
2007,01,30,16,22,8.10
2007,01,30,16,23,8.00
2007,01,30,16,24,8.00
2007,01,30,16,25,8.00
2007,01,30,16,26,8.00
2007,01,30,16,27,8.00
2007,01,30,16,28,8.00
2007,01,30,16,29,7.90
2007,01,30,16,30,7.90
2007,01,30,16,31,7.90
2007,01,30,16,32,7.80
2007,01,30,16,33,7.80
2007,01,30,16,34,7.80
2007,01,30,16,35,7.80
2007,01,30,16,36,7.80
2007,01,30,16,37,7.80
2007,01,30,16,38,7.80
2007,01,30,16,39,7.80
2007,01,30,16,40,7.80
2007,01,30,16,41,7.80
2007,01,30,16,42,7.80
2007,01,30,16,43,7.80
2007,01,30,16,44,7.80
2007,01,30,16,45,7.80
2007,01,30,16,46,7.80
2007,01,30,16,47,7.80
2007,01,30,16,48,7.70
2007,01,30,16,49,7.70
2007,01,30,16,50,7.70
2007,01,30,16,51,7.70
2007,01,30,16,52,7.70
2007,01,30,16,53,7.60
2007,01,30,16,54,7.60
2007,01,30,16,55,7.60
2007,01,30,16,56,7.60
2007,01,30,16,57,7.50
2007,01,30,16,58,7.50
2007,01,30,16,59,7.40
2007,01,30,17,00,7.40
2007,01,30,17,01,7.40
2007,01,30,17,02,7.30
2007,01,30,17,03,7.30
2007,01,30,17,04,7.30
2007,01,30,17,05,7.30
2007,01,30,17,06,7.20
2007,01,30,17,07,7.20
2007,01,30,17,08,7.10
2007,01,30,17,09,7.10
2007,01,30,17,10,7.10
2007,01,30,17,11,7.10
2007,01,30,17,12,7.00
2007,01,30,17,13,7.00
2007,01,30,17,14,7.00
2007,01,30,17,15,7.00
2007,01,30,17,16,6.90
2007,01,30,17,17,6.90
2007,01,30,17,18,6.90
2007,01,30,17,19,6.90
2007,01,30,17,20,6.80
2007,01,30,17,21,6.80
2007,01,30,17,22,6.80
2007,01,30,17,23,6.90
2007,01,30,17,24,6.90
2007,01,30,17,25,6.90
2007,01,30,17,26,6.90
2007,01,30,17,27,6.90
2007,01,30,17,28,6.90
2007,01,30,17,29,6.90
2007,01,30,17,30,6.90
2007,01,30,17,31,6.90
2007,01,30,17,32,6.90
2007,01,30,17,33,6.90
2007,01,30,17,34,6.90
2007,01,30,17,35,6.90
2007,01,30,17,36,7.00
2007,01,30,17,37,7.00
2007,01,30,17,38,7.00
2007,01,30,17,39,7.00
2007,01,30,17,40,7.00
2007,01,30,17,41,7.00
2007,01,30,17,42,7.00
2007,01,30,17,43,6.90
2007,01,30,17,44,6.90
2007,01,30,17,45,6.90
2007,01,30,17,46,6.80
2007,01,30,17,47,6.80
2007,01,30,17,48,6.80
2007,01,30,17,49,6.80
2007,01,30,17,50,6.80
2007,01,30,17,51,6.80
2007,01,30,17,52,6.80
2007,01,30,17,53,6.70
2007,01,30,17,54,6.70
2007,01,30,17,55,6.70
2007,01,30,17,56,6.70
2007,01,30,17,57,6.70
2007,01,30,17,58,6.60
2007,01,30,17,59,6.60
2007,01,30,18,00,6.60
2007,01,30,18,01,6.60
2007,01,30,18,02,6.60